Flagstaff, AZ

2:24 PM MST on July 28, 2016 (GMT -0700)
Flagstaff Pulliam

Weather History for KFLG - May, 2014

Change the Weather History Date:

Thursday, May 15, 2014

  Actual Average Record
Temperature  
Mean Temperature 51 °F 51 °F  
Max Temperature 74 °F 68 °F 81 °F (1937)
Min Temperature 27 °F 35 °F 20 °F (1968)
Degree Days  
Heating Degree Days 14 14  
Month to date heating degree days 253 232  
Since 1 July heating degree days 6254 6588  
Cooling Degree Days 0 0  
Month to date cooling degree days 0 0  
Year to date cooling degree days 0 0  
Moisture  
Dew Point 19 °F    
Average Humidity 32    
Maximum Humidity 50    
Minimum Humidity 14    
Precipitation  
Precipitation 0.00 in 0.02 in 0.65 in (2015)
Month to date precipitation 0.05 0.30  
Year to date precipitation 3.14 7.78  
Snow  
Snow 0.00 in 0.00 in 6.00 in (1951)
Month to date snowfall 0.4 0.6  
Since 1 July snowfall 44.4 101.6  
Snow Depth 0.00 in    
Sea Level Pressure  
Sea Level Pressure 30.18 in    
Wind  
Wind Speed 5 mph (ENE)    
Max Wind Speed 21 mph    
Max Gust Speed 31 mph    
Visibility 10 miles    
Events      
T = Trace of Precipitation, MM = Missing Value Source: NWS Daily Summary

Daily Weather History Graph

Daily Weather History Graph

Search for Another Location

Airport or City:

Trip Planner

Search our weather history database for the weather conditions in past years. The results will help you decide how hot, cold, wet, or windy it might be!

Date:

Astronomy

May. 15, 2014 Rise Set
Actual Time 5:22 AM MST 7:23 PM MST
Civil Twilight 4:54 AM MST 7:51 PM MST
Nautical Twilight 4:20 AM MST 8:26 PM MST
Astronomical Twilight 3:43 AM MST 9:03 PM MST
Moon 8:35 PM MST (5/15) 6:12 AM MST (5/15)
Length of Visible Light 14h 57m
Length of Day
14h 01m
Full, 99% of the Moon is Illuminated
May 15
Full
May 21
Last Quarter
May 28
New
Jun 5
First Quarter
Jun 12
Full

Hourly Weather History & Observations

Time (MST) Temp. Windchill Dew Point Humidity Pressure Visibility Wind Dir Wind Speed Gust Speed Precip Events Conditions
12:57 AM 32.0 °F 28.7 °F 12.9 °F 45% 30.27 in 10.0 mi North 3.5 mph - N/A   Clear
1:57 AM 30.0 °F 26.5 °F 12.0 °F 47% 30.26 in 10.0 mi NNE 3.5 mph - N/A   Clear
2:57 AM 28.9 °F - 12.0 °F 49% 30.25 in 10.0 mi Calm Calm - N/A   Clear
3:57 AM 28.9 °F - 12.0 °F 49% 30.25 in 10.0 mi Calm Calm - N/A   Clear
4:57 AM 28.0 °F - 12.0 °F 51% 30.26 in 10.0 mi Calm Calm - N/A   Clear
5:57 AM 28.9 °F - 12.9 °F 51% 30.26 in 10.0 mi Calm Calm - N/A   Clear
6:57 AM 43.0 °F - 16.0 °F 34% 30.22 in 10.0 mi Calm Calm - N/A   Clear
7:57 AM 55.9 °F - 17.1 °F 22% 30.19 in 10.0 mi East 6.9 mph - N/A   Clear
8:57 AM 62.1 °F - 19.9 °F 20% 30.19 in 10.0 mi ENE 12.7 mph 23.0 mph N/A   Clear
9:57 AM 64.9 °F - 21.0 °F 19% 30.19 in 10.0 mi ENE 16.1 mph 24.2 mph N/A   Clear
10:57 AM 68.0 °F - 21.9 °F 17% 30.19 in 10.0 mi ENE 12.7 mph 24.2 mph N/A   Clear
11:57 AM 68.0 °F - 21.9 °F 17% 30.20 in 10.0 mi ENE 11.5 mph 26.5 mph N/A   Clear
12:57 PM 70.0 °F - 21.0 °F 16% 30.18 in 10.0 mi ENE 9.2 mph 18.4 mph N/A   Clear
1:57 PM 72.0 °F - 21.0 °F 15% 30.16 in 10.0 mi North - - N/A   Clear
2:57 PM 72.0 °F - 19.9 °F 14% 30.14 in 10.0 mi North - - N/A   Partly Cloudy
3:57 PM 72.0 °F - 21.9 °F 15% 30.12 in 10.0 mi East 11.5 mph - N/A   Clear
4:57 PM 72.0 °F - 21.9 °F 15% 30.13 in 10.0 mi East 10.4 mph - N/A   Clear
5:57 PM 71.1 °F - 21.9 °F 16% 30.12 in 10.0 mi East 4.6 mph - N/A   Clear
6:57 PM 66.9 °F - 21.0 °F 17% 30.10 in 10.0 mi ENE 6.9 mph - N/A   Clear
7:57 PM 57.0 °F - 21.9 °F 26% 30.09 in 10.0 mi Calm Calm - N/A   Clear
8:57 PM 50.0 °F - 21.9 °F 33% 30.12 in 10.0 mi Calm Calm - N/A   Clear
9:57 PM 46.0 °F - 21.9 °F 39% 30.13 in 10.0 mi Calm Calm - N/A   Clear
10:57 PM 43.0 °F - 21.9 °F 43% 30.13 in 10.0 mi Calm Calm - N/A   Clear
11:57 PM 41.0 °F - 21.0 °F 45% 30.13 in 10.0 mi Calm Calm - N/A   Clear